When you browse on this site, cookies collect data to enhance your experience and personalize the content and advertising you see.
Visit our Privacy Policy to learn more. By continuing to use the site, you agree to this use of cookies and data.
  • In Lithuania
  • List of Countries
  • For 7 days
  • Water Temperature
  • Satellite Maps
  • Weather Map
  • Weather Widgets
  • user-avatar
    Login

    Hourly Weather Escaldes-Engordany

    Today, 24 July, Wednesday

    Time Temperature Precipitation Wind Pressure Humidity
    00:00 +19°C° 0 mm 1 mps 642 mmHg 52%
    01:00 +19°C° 0 mm 1 mps 642 mmHg 51%
    02:00 +19°C° 0 mm 1 mps 642 mmHg 49%
    03:00 +19°C° 0 mm 1 mps 641 mmHg 48%
    04:00 +20°C° 0 mm 1 mps 642 mmHg 48%
    05:00 +20°C° 0 mm 1 mps 642 mmHg 48%
    06:00 +21°C° 0 mm 1 mps 642 mmHg 48%
    07:00 +24°C° 0 mm 1 mps 643 mmHg 42%
    08:00 +26°C° 0 mm 1 mps 644 mmHg 35%
    09:00 +29°C° 0 mm 1 mps 645 mmHg 28%
    10:00 +30°C° 0 mm 1 mps 645 mmHg 27%
    11:00 +30°C° 0 mm 2 mps 645 mmHg 25%
    12:00 +31°C° 0 mm 2 mps 645 mmHg 24%
    13:00 +31°C° 0 mm 2 mps 645 mmHg 25%
    14:00 +31°C° 0 mm 2 mps 644 mmHg 26%
    15:00 +30°C° 0 mm 2 mps 644 mmHg 28%
    16:00 +29°C° 0 mm 2 mps 643 mmHg 35%
    17:00 +28°C° 0 mm 2 mps 643 mmHg 43%
    18:00 +26°C° 0 mm 1 mps 642 mmHg 50%
    19:00 +24°C° 0 mm 1 mps 642 mmHg 55%
    20:00 +22°C° 0 mm 1 mps 641 mmHg 61%
    21:00 +20°C° 0 mm 1 mps 641 mmHg 66%
    22:00 +20°C° 0 mm 1 mps 641 mmHg 64%
    23:00 +19°C° 0 mm 1 mps 640 mmHg 62%

    Tomorrow, 25 July, Thursday

    Time Temperature Precipitation Wind Pressure Humidity
    00:00 +19°C° 0 mm 1 mps 640 mmHg 60%
    01:00 +19°C° 0 mm 1 mps 640 mmHg 59%
    02:00 +19°C° 0 mm 1 mps 640 mmHg 58%
    03:00 +19°C° 0 mm 1 mps 640 mmHg 56%
    04:00 +19°C° 0 mm 1 mps 640 mmHg 55%
    05:00 +20°C° 0 mm 1 mps 640 mmHg 53%
    06:00 +21°C° 0 mm 1 mps 640 mmHg 51%
    07:00 +23°C° 0 mm 1 mps 641 mmHg 44%
    08:00 +26°C° 0 mm 1 mps 642 mmHg 36%
    09:00 +28°C° 0 mm 2 mps 643 mmHg 28%
    10:00 +29°C° 0 mm 2 mps 643 mmHg 27%
    11:00 +30°C° 0 mm 2 mps 643 mmHg 26%
    12:00 +31°C° 0 mm 2 mps 643 mmHg 25%
    13:00 +31°C° 0 mm 2 mps 643 mmHg 27%
    14:00 +30°C° 0 mm 2 mps 643 mmHg 28%
    15:00 +30°C° 0 mm 3 mps 642 mmHg 30%
    16:00 +29°C° 0 mm 2 mps 642 mmHg 36%
    17:00 +27°C° 0 mm 2 mps 641 mmHg 43%
    18:00 +26°C° 0 mm 2 mps 641 mmHg 49%
    19:00 +24°C° 0 mm 2 mps 640 mmHg 54%
    20:00 +22°C° 0 mm 1 mps 640 mmHg 59%
    21:00 +20°C° 0 mm 1 mps 639 mmHg 64%
    22:00 +19°C° 0 mm 1 mps 639 mmHg 63%
    23:00 +19°C° 0 mm 1 mps 639 mmHg 63%

    Day after tomorrow, 26 July, Friday

    Time Temperature Precipitation Wind Pressure Humidity
    00:00 +19°C° 0 mm 1 mps 639 mmHg 63%
    01:00 +18°C° 0 mm 1 mps 639 mmHg 63%
    02:00 +18°C° 0 mm 1 mps 638 mmHg 64%
    03:00 +18°C° 0 mm 1 mps 638 mmHg 65%
    04:00 +18°C° 0 mm 1 mps 638 mmHg 63%
    05:00 +19°C° 0 mm 1 mps 638 mmHg 61%
    06:00 +20°C° 0 mm 1 mps 639 mmHg 59%
    07:00 +22°C° 0 mm 1 mps 639 mmHg 52%
    08:00 +24°C° 0 mm 1 mps 640 mmHg 45%
    09:00 +26°C° 0 mm 2 mps 641 mmHg 38%
    10:00 +26°C° 0 mm 2 mps 641 mmHg 37%
    11:00 +27°C° 0 mm 2 mps 641 mmHg 36%
    12:00 +27°C° 0 mm 3 mps 641 mmHg 36%
    13:00 +26°C° 0.2 mm 3 mps 640 mmHg 40%
    14:00 +25°C° 0.2 mm 3 mps 639 mmHg 45%
    15:00 +24°C° 0.2 mm 3 mps 639 mmHg 50%
    16:00 +22°C° 0.6 mm 3 mps 638 mmHg 56%
    17:00 +21°C° 0.6 mm 2 mps 638 mmHg 63%
    18:00 +20°C° 0.6 mm 2 mps 637 mmHg 69%
    19:00 +19°C° 1.6 mm 2 mps 637 mmHg 75%
    20:00 +18°C° 1.6 mm 1 mps 637 mmHg 80%
    21:00 +16°C° 1.6 mm 1 mps 637 mmHg 86%
    22:00 +15°C° 0.1 mm 1 mps 636 mmHg 88%
    23:00 +15°C° 0.1 mm 1 mps 636 mmHg 89%

    27 July, Saturday

    Time Temperature Precipitation Wind Pressure Humidity
    00:00 +14°C° 0.1 mm 1 mps 636 mmHg 91%
    01:00 +14°C° 0.2 mm 1 mps 635 mmHg 92%
    02:00 +14°C° 0.2 mm 2 mps 635 mmHg 93%
    03:00 +13°C° 0.2 mm 2 mps 635 mmHg 94%
    04:00 +14°C° 0.5 mm 2 mps 635 mmHg 94%
    05:00 +14°C° 0.5 mm 2 mps 635 mmHg 93%
    06:00 +14°C° 0.5 mm 2 mps 635 mmHg 93%
    07:00 +15°C° 0.7 mm 2 mps 635 mmHg 89%
    08:00 +15°C° 0.7 mm 2 mps 636 mmHg 86%
    09:00 +16°C° 0.7 mm 2 mps 636 mmHg 82%
    10:00 +16°C° 0.9 mm 2 mps 636 mmHg 81%
    11:00 +16°C° 0.9 mm 2 mps 636 mmHg 80%
    12:00 +17°C° 0.9 mm 2 mps 636 mmHg 79%
    13:00 +17°C° 0.9 mm 2 mps 636 mmHg 79%
    14:00 +16°C° 0.9 mm 2 mps 635 mmHg 78%
    15:00 +16°C° 0.9 mm 2 mps 635 mmHg 78%
    16:00 +15°C° 0.4 mm 2 mps 635 mmHg 80%
    17:00 +14°C° 0.4 mm 2 mps 635 mmHg 83%
    18:00 +13°C° 0.4 mm 2 mps 634 mmHg 85%
    19:00 +12°C° 0 mm 2 mps 635 mmHg 86%
    20:00 +10°C° 0 mm 2 mps 635 mmHg 88%
    21:00 +9°C° 0 mm 2 mps 635 mmHg 89%
    22:00 +9°C° 0 mm 2 mps 635 mmHg 89%
    23:00 +8°C° 0 mm 2 mps 635 mmHg 90%

    28 July, Sunday

    Time Temperature Precipitation Wind Pressure Humidity
    00:00 +8°C° 0 mm 2 mps 635 mmHg 90%
    01:00 +7°C° 0 mm 2 mps 634 mmHg 90%
    02:00 +7°C° 0 mm 2 mps 634 mmHg 91%
    03:00 +7°C° 0 mm 2 mps 634 mmHg 91%
    04:00 +7°C° 0 mm 2 mps 635 mmHg 89%
    05:00 +8°C° 0 mm 2 mps 635 mmHg 87%
    06:00 +8°C° 0 mm 2 mps 635 mmHg 85%
    07:00 +10°C° 0 mm 2 mps 636 mmHg 75%
    08:00 +13°C° 0 mm 2 mps 637 mmHg 64%
    09:00 +15°C° 0 mm 2 mps 638 mmHg 54%
    10:00 +17°C° 0 mm 2 mps 638 mmHg 47%
    11:00 +18°C° 0 mm 2 mps 639 mmHg 41%
    12:00 +19°C° 0 mm 2 mps 639 mmHg 34%
    13:00 +20°C° 0 mm 2 mps 639 mmHg 35%
    14:00 +20°C° 0 mm 2 mps 639 mmHg 36%
    15:00 +20°C° 0 mm 2 mps 639 mmHg 38%
    16:00 +19°C° 0 mm 2 mps 638 mmHg 47%
    17:00 +17°C° 0 mm 2 mps 638 mmHg 57%
    18:00 +16°C° 0 mm 2 mps 638 mmHg 67%
    19:00 +14°C° 0 mm 2 mps 637 mmHg 75%
    20:00 +12°C° 0 mm 2 mps 637 mmHg 83%
    21:00 +9°C° 0 mm 2 mps 637 mmHg 92%
    22:00 +10°C° 0 mm 1 mps 637 mmHg 91%
    23:00 +10°C° 0 mm 1 mps 637 mmHg 90%

    29 July, Monday

    Time Temperature Precipitation Wind Pressure Humidity
    00:00 +9°C° 0 mm 1 mps 637 mmHg 90%
    01:00 +9°C° 0 mm 1 mps 637 mmHg 87%
    02:00 +9°C° 0 mm 1 mps 637 mmHg 85%
    03:00 +9°C° 0 mm 1 mps 637 mmHg 83%
    04:00 +10°C° 0 mm 1 mps 637 mmHg 79%
    05:00 +11°C° 0 mm 1 mps 637 mmHg 74%
    06:00 +12°C° 0 mm 1 mps 638 mmHg 70%
    07:00 +15°C° 0 mm 1 mps 639 mmHg 60%
    08:00 +19°C° 0 mm 1 mps 640 mmHg 49%
    09:00 +21°C° 0 mm 1 mps 641 mmHg 39%
    10:00 +23°C° 0 mm 1 mps 641 mmHg 37%
    11:00 +24°C° 0 mm 2 mps 641 mmHg 36%
    12:00 +25°C° 0 mm 2 mps 641 mmHg 34%
    13:00 +25°C° 0 mm 2 mps 641 mmHg 34%
    14:00 +25°C° 0 mm 2 mps 641 mmHg 34%
    15:00 +25°C° 0 mm 2 mps 641 mmHg 35%
    16:00 +24°C° 0 mm 2 mps 640 mmHg 40%
    17:00 +23°C° 0 mm 1 mps 640 mmHg 46%
    18:00 +22°C° 0 mm 1 mps 639 mmHg 51%
    19:00 +20°C° 0 mm 1 mps 639 mmHg 57%
    20:00 +16°C° 0 mm 1 mps 639 mmHg 63%
    21:00 +14°C° 0 mm 1 mps 638 mmHg 69%
    22:00 +14°C° 0 mm 1 mps 638 mmHg 69%
    23:00 +14°C° 0 mm 1 mps 638 mmHg 70%
    Show more